Tracking 19575 objects as of 20-Feb-2019
HD Live streaming from Space Station
objects crossing your sky now

TELECOM 1A

Track TELECOM 1A now!
TELECOM 1A is classified as:


NORAD ID: 15159
Int'l Code: 1984-081B
Perigee: 36,149.3 km
Apogee: 36,506.3 km
Inclination: 15.4 °
Period: 1,463.5 minutes
Semi major axis: 42698 km
RCS: 10.2909 m2 (large)
Launch date: August 4, 1984
Source: France (FR)
Launch site: FRENCH GUIANA (FRGUI)
aabbcc
Your satellite tracking list
Your tracking list is empty




NASA's NSSDC Master Catalog

Two Line Element Set (TLE):
1 15159U 84081B   19050.80473336 -.00000066 +00000-0 +00000-0 0  9994
2 15159 015.3791 355.3085 0041804 340.1375 200.6147 00.98396610092304
Source of the keplerian elements: AFSPC